Flag for United Kingdom Weather past 2 weeks in Middlesbrough, England, United Kingdom

Now
63 °F

Passing clouds.


Feels Like: 63 °F
Forecast: 52 / 66 °F
Wind: 6 mph from South

Location: Tees-Side

Current Time: Jul 5, 2015 at 11:31:39 AM

Latest Report: Jul 5, 2015 at 10:50 AM


Visibility: N/A

Pressure: 30.04 "Hg

Humidity: 68%

Dew point: 52 °F

Location of MiddlesbroughLocation

Historic Weather in Middlesbrough — Graph

°F

Middlesbrough temperature yesterday

Maximum temperature yesterday: 73 °F (at 2:50 PM)
Minimum temperature yesterday: 57 °F (at 5:50 AM)
Average temperature yesterday: 65 °F

Past Weeks' High & Low Weather Summary

 TemperatureHumidityPressure
High88 °F (Jul 1, 1:20 PM)100% (Jun 26, 8:20 AM)30.30 "Hg (Jun 26, 8:20 AM)
Low46 °F (Jun 24, 5:50 AM)31% (Jul 1, 1:20 PM)29.74 "Hg (Jun 22, 6:50 AM)
Average64 °F66%30.01 "Hg
* Reported Jun 20 10:20 AM — Jul 5 10:20 AM, Middlesbrough, Weather by CustomWeather, © 2015

Note: Actual official high and low records may vary slightly from our data, if they occured in-between our weather recording intervals... More about our weather records

Advertising

Middlesbrough weather history for previous 24 hours

 ConditionsComfort  
Time TempWeatherWind HumidityBarometerVisibility
10:20 AM
Sun, Jul 5
61 °FPassing clouds.5 mph72%30.04 "HgN/A
9:50 AM61 °FPassing clouds.6 mph72%30.04 "HgN/A
9:20 AM61 °FSunny.5 mph72%30.04 "Hg10 mi
8:50 AM61 °FSunny.6 mph68%30.07 "Hg10 mi
8:20 AM59 °FPassing clouds.6 mph77%30.07 "HgN/A
7:50 AM57 °FSunny.5 mph77%30.07 "Hg10 mi
7:20 AM55 °FSunny.5 mph82%30.07 "Hg10 mi
6:50 AM54 °FSunny.5 mph82%30.07 "Hg10 mi
6:20 AM52 °FSunny.3 mph88%30.07 "Hg10 mi
5:50 AM50 °FSunny.5 mph88%30.09 "Hg10 mi
9:50 PM
Sat, Jul 4
63 °FPassing clouds.5 mph59%30.07 "HgN/A
9:20 PM64 °FSunny.7 mph56%30.07 "Hg10 mi
8:50 PM66 °FSunny.12 mph49%30.04 "Hg10 mi
7:50 PM70 °FSunny.12 mph40%30.04 "Hg10 mi
7:20 PM70 °FSunny.16 mph43%30.04 "Hg10 mi
6:50 PM70 °FSunny.17 mph46%30.04 "Hg10 mi
6:20 PM70 °FPassing clouds.17 mph53%30.04 "HgN/A
5:50 PM70 °FPassing clouds.16 mph60%30.01 "HgN/A
5:20 PM72 °FPassing clouds.17 mph57%30.01 "HgN/A
4:50 PM72 °FPassing clouds.18 mph61%30.01 "HgN/A
4:20 PM73 °FPassing clouds.18 mph61%29.98 "HgN/A
3:20 PM73 °FScattered clouds.8 mph69%29.95 "Hg5 mi
2:50 PM73 °FPassing clouds.10 mph69%29.95 "Hg5 mi
2:20 PM72 °FPassing clouds.12 mph73%29.95 "Hg5 mi
1:50 PM70 °FScattered clouds.9 mph78%29.95 "Hg5 mi
1:20 PM68 °FPartly sunny.12 mph83%29.95 "Hg4 mi
12:50 PM64 °FFog.10 mph94%29.98 "Hg3 mi
12:20 PM64 °FFog.9 mph94%29.98 "Hg2 mi
11:50 AM63 °FFog.9 mph94%29.98 "Hg2 mi
11:20 AM63 °FDrizzle. Fog.7 mph94%29.98 "Hg2 mi
Weather by CustomWeather, © 2015

See weather overviewHow to use our weather pages